Terminal Aerodrome Forecast
Issued by NWS

Home | Current Version | Previous Version | Graphics & Text | Print | Product List | Glossary Off
Versions: 1 2 3 4 5 6 7 8 9 10 11 12 13 14 15 16 17 18 19 20 21 22 23 24 25 26 27 28 29 30 31 32 33 34 35 36 37 38 39 40 41 42 43 44 45

000
FTUS43 KDDC 271120
TAFHYS
TAF
KHYS 271120Z 2712/2812 12008KT P6SM SCT003
     FM271300 13010KT P6SM SCT008
     FM271500 15013KT P6SM SCT025
     FM271600 16014G22KT P6SM SCT150
     FM280500 19015KT P6SM BKN200 WS020/19050KT
     FM280800 20013KT P6SM BKN200=

USA.gov is the U.S. government's official web portal to all federal, state and local government web resources and services.